Home > Weather > Warren > Past weeks

Flag for U.S.A. Weather for the Past 2 Weeks in Warren, Michigan, U.S.A.

Now
21 °F

Partly sunny.


Feels Like: 8 °F
Forecast: 11 / 25 °F
Wind: 14 mph from Northwest

Location: Detroit City Airport

Current Time: Feb 12, 2016 at 6:07:20 PM

Latest Report: Feb 12, 2016 at 4:53 PM


Visibility: 4 mi

Pressure: 29.99 "Hg

Humidity: 62%

Dew point: 10 °F

Location of WarrenLocation

Historic Weather in Warren — Graph

°F

Warren Temperature Yesterday

Maximum temperature yesterday: 20 °F (at 3:53 PM)
Minimum temperature yesterday: 10 °F (at 6:53 AM)
Average temperature yesterday: 15 °F

High & Low Weather Summary for the Past Weeks

 TemperatureHumidityPressure
High56 °F (Feb 3, 10:53 AM)96% (Feb 9, 7:53 AM)30.66 "Hg (Feb 9, 7:53 AM)
Low10 °F (Feb 11, 6:53 AM)43% (Jan 29, 3:53 PM)29.46 "Hg (Feb 3, 5:53 AM)
Average33 °F70%29.92 "Hg
* Reported Jan 28 3:53 PM — Feb 12 3:53 PM, Warren, Weather by CustomWeather, © 2016

Note: Actual official high and low records may vary slightly from our data, if they occured in-between our weather recording intervals... More about our weather records

Advertising

Warren Weather History for the Previous 24 Hours

 ConditionsComfort  
Time TempWeatherWind HumidityBarometerVisibility
3:53 PM
Fri, Feb 12
23 °FMostly cloudy.17 mph63%29.97 "Hg10 mi
3:02 PM22 °FSnow. Mostly cloudy.15 mph82%29.92 "Hg1 mi
1:53 PM24 °FOvercast.16 mph60%30.66 "Hg9 mi
12:53 PM22 °FMore clouds than sun.13 mph68%29.99 "Hg10 mi
12:03 PM21 °FOvercast.15 mph68%29.99 "Hg6 mi
11:53 AM21 °FLight snow. Mostly cloudy.13 mph68%30.02 "Hg4 mi
10:53 AM20 °FOvercast.13 mph62%30.04 "Hg10 mi
9:53 AM19 °FOvercast.16 mph62%30.07 "Hg10 mi
8:53 AM18 °FOvercast.15 mph65%30.08 "Hg10 mi
7:53 AM17 °FOvercast.12 mph64%30.11 "Hg10 mi
6:53 AM16 °FOvercast.12 mph65%30.14 "Hg10 mi
5:53 AM13 °FPassing clouds.8 mph70%30.14 "Hg10 mi
4:53 AM13 °FClear.8 mph70%30.16 "Hg10 mi
3:53 AM13 °FClear.8 mph74%30.18 "Hg10 mi
2:53 AM14 °FClear.5 mph73%30.21 "Hg10 mi
1:53 AM15 °FClear.7 mph70%30.23 "Hg10 mi
12:53 AM15 °FClear.8 mph70%30.25 "Hg10 mi
11:53 PM
Thu, Feb 11
16 °FClear.8 mph65%30.26 "Hg10 mi
10:53 PM16 °FClear.9 mph59%30.26 "Hg10 mi
9:53 PM14 °FClear.6 mph58%30.27 "Hg10 mi
8:53 PM14 °FClear.5 mph61%30.27 "Hg10 mi
7:53 PM14 °FClear.3 mph61%30.25 "Hg10 mi
6:53 PM15 °FClear.No wind53%30.28 "Hg10 mi
Weather by CustomWeather, © 2016

See weather overviewHow to use our weather pages